,,,PA_Meas_PMT16A,,PR_Meas_QMR101_102,,RH_Meas_QMH101,,SR_Meas_QMS101,,TA_Meas_QMH101,,GenWind,,GenWind,
date,time,status,PA,status,PR,status,RH,status,SR,status,TA,status,DirAvg,status,SpdAvg,
2013-02-01, 00:00:04,VALID,1012.65,VALID,0,VALID,104,VALID,0,VALID,24.5905,VALID,158,VALID,0.700391,
2013-02-01, 00:01:04,VALID,1012.62,VALID,0,VALID,104,VALID,0,VALID,24.571,VALID,157,VALID,0.705469,
2013-02-01, 00:02:04,VALID,1012.6,VALID,0,VALID,104,VALID,0,VALID,24.571,VALID,155,VALID,0.661328,
2013-02-01, 00:03:04,VALID,1012.59,VALID,0,VALID,104,VALID,0,VALID,24.5515,VALID,157,VALID,0.548828,
2013-02-01, 00:04:04,VALID,1012.59,VALID,0,VALID,104,VALID,0,VALID,24.532,VALID,158,VALID,0.788281,
2013-02-01, 00:05:04,VALID,1012.59,VALID,0,VALID,104,VALID,0,VALID,24.5106,VALID,160,VALID,0.634375,
2013-02-01, 00:06:04,VALID,1012.59,VALID,0,VALID,104,VALID,0,VALID,24.5125,VALID,160,VALID,0.391797,
2013-02-01, 00:07:04,VALID,1012.59,VALID,0,VALID,104,VALID,0,VALID,24.5125,VALID,160,VALID,0.415234,
2013-02-01, 00:08:04,VALID,1012.61,VALID,0,VALID,104,VALID,0,VALID,24.5125,VALID,160,VALID,0.402734,
2013-02-01, 00:09:04,VALID,1012.61,VALID,0,VALID,104,VALID,0,VALID,24.5125,VALID,160,VALID,0.405078,
2013-02-01, 00:10:04,VALID,1012.62,VALID,0,VALID,104,VALID,0,VALID,24.5125,VALID,160,VALID,0.559766,
2013-02-01, 00:11:04,VALID,1012.61,VALID,0,VALID,104,VALID,0,VALID,24.5125,VALID,175,VALID,0.512109,
2013-02-01, 00:12:04,VALID,1012.6,VALID,0,VALID,104,VALID,0,VALID,24.5125,VALID,174,VALID,0.221484,
2013-02-01, 00:13:04,VALID,1012.58,VALID,0,VALID,104,VALID,0,VALID,24.532,VALID,175,VALID,0.253516,
2013-02-01, 00:14:04,VALID,1012.57,VALID,0,VALID,104,VALID,0,VALID,24.532,VALID,175,VALID,0.157422,
2013-02-01, 00:15:04,VALID,1012.56,VALID,0,VALID,104,VALID,0,VALID,24.532,VALID,175,VALID,0.4625,
2013-02-01, 00:16:04,VALID,1012.52,VALID,0,VALID,104,VALID,0,VALID,24.532,VALID,123,VALID,0.628516,
2013-02-01, 00:17:04,VALID,1012.54,VALID,0,VALID,104,VALID,0,VALID,24.5728,VALID,87,VALID,0.749609,
2013-02-01, 00:18:04,VALID,1012.53,VALID,0,VALID,104,VALID,0,VALID,24.532,VALID,87,VALID,0.61875,
2013-02-01, 00:19:04,VALID,1012.54,VALID,0,VALID,104,VALID,0,VALID,24.5533,VALID,86,VALID,0.817969,
2013-02-01, 00:20:04,VALID,1012.53,VALID,0,VALID,104,VALID,0,VALID,24.532,VALID,86,VALID,0.707812,
2013-02-01, 00:21:04,VALID,1012.52,VALID,0,VALID,104,VALID,0,VALID,24.5533,VALID,86,VALID,0.930469,
2013-02-01, 00:22:04,VALID,1012.56,VALID,0,VALID,104,VALID,0,VALID,24.5515,VALID,84,VALID,0.757031,
2013-02-01, 00:23:04,VALID,1012.56,VALID,0,VALID,104,VALID,0,VALID,24.532,VALID,93,VALID,0.55,
2013-02-01, 00:24:04,VALID,1012.54,VALID,0,VALID,104,VALID,0,VALID,24.532,VALID,65,VALID,0.995703,
2013-02-01, 00:25:04,VALID,1012.51,VALID,0,VALID,104,VALID,0,VALID,24.5125,VALID,64,VALID,0.823047,
2013-02-01, 00:26:04,VALID,1012.47,VALID,0,VALID,104,VALID,0,VALID,24.5125,VALID,64,VALID,0.373437,
2013-02-01, 00:27:04,VALID,1012.47,VALID,0,VALID,104,VALID,0,VALID,24.493,VALID,63,VALID,0.478125,
2013-02-01, 00:28:04,VALID,1012.42,VALID,0,VALID,104,VALID,0,VALID,24.493,VALID,63,VALID,0.446875,
2013-02-01, 00:29:04,VALID,1012.41,VALID,0,VALID,104,VALID,0,VALID,24.493,VALID,63,VALID,0.075,
2013-02-01, 00:30:04,VALID,1012.37,VALID,0,VALID,104,VALID,0,VALID,24.493,VALID,63,VALID,0.00429688,
2013-02-01, 00:31:04,VALID,1012.35,VALID,0,VALID,104,VALID,0,VALID,24.4735,VALID,63,VALID,0,
2013-02-01, 00:32:04,VALID,1012.34,VALID,0,VALID,104,VALID,0,VALID,24.4735,VALID,63,VALID,0,
2013-02-01, 00:33:04,VALID,1012.35,VALID,0,VALID,104,VALID,0,VALID,24.454,VALID,63,VALID,0,
2013-02-01, 00:34:04,VALID,1012.31,VALID,0,VALID,104,VALID,0,VALID,24.4735,VALID,124,VALID,1.00508,
2013-02-01, 00:35:04,VALID,1012.33,VALID,0,VALID,104,VALID,0,VALID,24.4735,VALID,125,VALID,0.724219,
2013-02-01, 00:36:04,VALID,1012.3,VALID,0,VALID,104,VALID,0,VALID,24.454,VALID,126,VALID,0.78125,
2013-02-01, 00:37:04,VALID,1012.25,VALID,0,VALID,104,VALID,0,VALID,24.4345,VALID,148,VALID,0.691016,
2013-02-01, 00:38:04,VALID,1012.25,VALID,0,VALID,104,VALID,0,VALID,24.4345,VALID,154,VALID,0.50625,
2013-02-01, 00:39:04,VALID,1012.22,VALID,0,VALID,104,VALID,0,VALID,24.415,VALID,154,VALID,0.407031,
2013-02-01, 00:40:04,VALID,1012.21,VALID,0,VALID,104,VALID,0,VALID,24.415,VALID,154,VALID,0.475391,
2013-02-01, 00:41:04,VALID,1012.17,VALID,0,VALID,104,VALID,0,VALID,24.3956,VALID,154,VALID,0.739453,
2013-02-01, 00:42:04,VALID,1012.14,VALID,0,VALID,104,VALID,0,VALID,24.3956,VALID,153,VALID,0.524609,
2013-02-01, 00:43:04,VALID,1012.09,VALID,0,VALID,104,VALID,0,VALID,24.3761,VALID,153,VALID,0.550391,
2013-02-01, 00:44:04,VALID,1012.09,VALID,0,VALID,104,VALID,0,VALID,24.3761,VALID,154,VALID,0.558984,
2013-02-01, 00:45:04,VALID,1012.04,VALID,0,VALID,104,VALID,0,VALID,24.3566,VALID,159,VALID,0.564844,
2013-02-01, 00:46:04,VALID,1012.02,VALID,0,VALID,104,VALID,0,VALID,24.3566,VALID,159,VALID,0.389062,
2013-02-01, 00:47:04,VALID,1012.02,VALID,0,VALID,104,VALID,0,VALID,24.3584,VALID,159,VALID,0.272656,
2013-02-01, 00:48:04,VALID,1012.01,VALID,0,VALID,104,VALID,0,VALID,24.3371,VALID,159,VALID,0.708594,
2013-02-01, 00:49:04,VALID,1012.04,VALID,0,VALID,104,VALID,0,VALID,24.3389,VALID,159,VALID,0.511328,
2013-02-01, 00:50:04,VALID,1012.04,VALID,0,VALID,104,VALID,0,VALID,24.3176,VALID,159,VALID,0.471094,
2013-02-01, 00:51:04,VALID,1012.02,VALID,0,VALID,104,VALID,0,VALID,24.3176,VALID,159,VALID,0.436328,
2013-02-01, 00:52:04,VALID,1012.03,VALID,0,VALID,104,VALID,0,VALID,24.3176,VALID,159,VALID,0.462891,
2013-02-01, 00:53:04,VALID,1012.02,VALID,0,VALID,104,VALID,0,VALID,24.3176,VALID,160,VALID,0.379687,
2013-02-01, 00:54:04,VALID,1012.05,VALID,0,VALID,104,VALID,0,VALID,24.3584,VALID,164,VALID,0.608594,
2013-02-01, 00:55:04,VALID,1012.01,VALID,0,VALID,104,VALID,0,VALID,24.2981,VALID,168,VALID,0.346484,
2013-02-01, 00:56:04,VALID,1012.02,VALID,0,VALID,104,VALID,0,VALID,24.3176,VALID,168,VALID,0.622266,
2013-02-01, 00:57:04,VALID,1012.04,VALID,0,VALID,104,VALID,0,VALID,24.3176,VALID,168,VALID,0.596484,
2013-02-01, 00:58:04,VALID,1012.02,VALID,0,VALID,104,VALID,0,VALID,24.3371,VALID,147,VALID,1.00508,
2013-02-01, 00:59:04,VALID,1012.01,VALID,0,VALID,104,VALID,0,VALID,24.3566,VALID,144,VALID,0.874219,
2013-02-01, 01:00:04,VALID,1011.99,VALID,0,VALID,104,VALID,0,VALID,24.3371,VALID,144,VALID,0.487891,
2013-02-01, 01:01:04,VALID,1012.02,VALID,0,VALID,104,VALID,0,VALID,24.3371,VALID,144,VALID,0.445703,
2013-02-01, 01:02:04,VALID,1012.02,VALID,0,VALID,104,VALID,0,VALID,24.3352,VALID,144,VALID,0.196875,
2013-02-01, 01:03:04,VALID,1012.02,VALID,0,VALID,104,VALID,0,VALID,24.3352,VALID,142,VALID,0.560547,
2013-02-01, 01:04:04,VALID,1012.02,VALID,0,VALID,104,VALID,0,VALID,24.3352,VALID,141,VALID,0.324609,
2013-02-01, 01:05:04,VALID,1012.02,VALID,0,VALID,104,VALID,0.112112,VALID,24.3547,VALID,95,VALID,0.830469,
2013-02-01, 01:06:04,VALID,1012.01,VALID,0,VALID,104,VALID,0,VALID,24.3547,VALID,95,VALID,0.576953,
2013-02-01, 01:07:04,VALID,1012.01,VALID,0,VALID,104,VALID,0.112112,VALID,24.3547,VALID,97,VALID,0.362891,
2013-02-01, 01:08:04,VALID,1012.01,VALID,0,VALID,104,VALID,0.112112,VALID,24.3352,VALID,97,VALID,0.204688,
2013-02-01, 01:09:04,VALID,1011.99,VALID,0,VALID,104,VALID,0.112112,VALID,24.3547,VALID,97,VALID,0.334766,
2013-02-01, 01:10:04,VALID,1011.99,VALID,0,VALID,104,VALID,0.112112,VALID,24.3566,VALID,98,VALID,0.263672,
2013-02-01, 01:11:04,VALID,1012,VALID,0,VALID,104,VALID,0.112112,VALID,24.3352,VALID,94,VALID,0.686328,
2013-02-01, 01:12:04,VALID,1012.01,VALID,0,VALID,104,VALID,0.112112,VALID,24.3158,VALID,104,VALID,0.865625,
2013-02-01, 01:13:04,VALID,1012.01,VALID,0,VALID,104,VALID,0.112112,VALID,24.3158,VALID,105,VALID,0.618359,
2013-02-01, 01:14:04,VALID,1011.97,VALID,0,VALID,104,VALID,0.112112,VALID,24.2963,VALID,128,VALID,0.935156,
2013-02-01, 01:15:04,VALID,1011.96,VALID,0,VALID,104,VALID,0.112112,VALID,24.2963,VALID,128,VALID,0.764063,
2013-02-01, 01:16:04,VALID,1011.95,VALID,0,VALID,104,VALID,0.112112,VALID,24.2963,VALID,116,VALID,0.926172,
2013-02-01, 01:17:04,VALID,1011.93,VALID,0,VALID,104,VALID,0,VALID,24.2786,VALID,121,VALID,1.04453,
2013-02-01, 01:18:04,VALID,1011.91,VALID,0,VALID,104,VALID,0,VALID,24.2786,VALID,129,VALID,0.794141,
2013-02-01, 01:19:04,VALID,1011.92,VALID,0,VALID,104,VALID,0,VALID,24.2786,VALID,157,VALID,0.978516,
2013-02-01, 01:20:04,VALID,1011.88,VALID,0,VALID,104,VALID,0,VALID,24.2591,VALID,152,VALID,0.770312,
2013-02-01, 01:21:04,VALID,1011.9,VALID,0,VALID,104,VALID,0,VALID,24.2591,VALID,142,VALID,1.07422,
2013-02-01, 01:22:04,VALID,1011.87,VALID,0,VALID,104,VALID,0,VALID,24.2591,VALID,132,VALID,0.683203,
2013-02-01, 01:23:04,VALID,1011.9,VALID,0,VALID,104,VALID,0,VALID,24.2396,VALID,143,VALID,0.579687,
2013-02-01, 01:24:04,VALID,1011.92,VALID,0,VALID,104,VALID,0,VALID,24.2396,VALID,156,VALID,0.133594,
2013-02-01, 01:25:04,VALID,1011.96,VALID,0,VALID,104,VALID,0,VALID,24.2396,VALID,156,VALID,0,
2013-02-01, 01:26:04,VALID,1011.98,VALID,0,VALID,104,VALID,0,VALID,24.2202,VALID,156,VALID,0.407031,
2013-02-01, 01:27:04,VALID,1012.01,VALID,0,VALID,104,VALID,0,VALID,24.2396,VALID,156,VALID,0.157813,
2013-02-01, 01:28:04,VALID,1012.03,VALID,0,VALID,104,VALID,0,VALID,24.2202,VALID,156,VALID,0.235547,
2013-02-01, 01:29:04,VALID,1012.03,VALID,0,VALID,104,VALID,0,VALID,24.2202,VALID,148,VALID,0.475781,
2013-02-01, 01:30:04,VALID,1012.05,VALID,0,VALID,104,VALID,0,VALID,24.2007,VALID,80,VALID,0.787109,
2013-02-01, 01:31:04,VALID,1012.07,VALID,0,VALID,104,VALID,0,VALID,24.1812,VALID,81,VALID,0.783594,
2013-02-01, 01:32:04,VALID,1012.04,VALID,0,VALID,104,VALID,0,VALID,24.2007,VALID,81,VALID,0.286719,
2013-02-01, 01:33:04,VALID,1012.04,VALID,0,VALID,104,VALID,0,VALID,24.1812,VALID,81,VALID,0.188672,
2013-02-01, 01:34:04,VALID,1012.07,VALID,0,VALID,104,VALID,0,VALID,24.1812,VALID,81,VALID,0.397266,
2013-02-01, 01:35:04,VALID,1012.07,VALID,0,VALID,104,VALID,0,VALID,24.2025,VALID,55,VALID,0.790625,
2013-02-01, 01:36:04,VALID,1012.1,VALID,0,VALID,104,VALID,0,VALID,24.1812,VALID,55,VALID,0.730078,
2013-02-01, 01:37:04,VALID,1012.15,VALID,0,VALID,104,VALID,0,VALID,24.1599,VALID,55,VALID,0.617969,
2013-02-01, 01:38:04,VALID,1012.15,VALID,0,VALID,104,VALID,0,VALID,24.1617,VALID,52,VALID,0.708203,
2013-02-01, 01:39:04,VALID,1012.19,VALID,0,VALID,104,VALID,0,VALID,24.1209,VALID,52,VALID,0.436719,
2013-02-01, 01:40:04,VALID,1012.17,VALID,0,VALID,104,VALID,0,VALID,24.1209,VALID,42,VALID,0.809375,
2013-02-01, 01:41:04,VALID,1012.17,VALID,0,VALID,104,VALID,0,VALID,24.1014,VALID,40,VALID,0.553516,
2013-02-01, 01:42:04,VALID,1012.18,VALID,0,VALID,104,VALID,0,VALID,24.0819,VALID,40,VALID,0.394922,
2013-02-01, 01:43:04,VALID,1012.19,VALID,0,VALID,104,VALID,0,VALID,24.0624,VALID,49,VALID,0.755469,
2013-02-01, 01:44:04,VALID,1012.18,VALID,0,VALID,104,VALID,0,VALID,24.0624,VALID,71,VALID,0.726172,
2013-02-01, 01:45:04,VALID,1012.2,VALID,0,VALID,104,VALID,0,VALID,24.0837,VALID,97,VALID,1.14961,
2013-02-01, 01:46:04,VALID,1012.19,VALID,0,VALID,104,VALID,0,VALID,24.0643,VALID,96,VALID,0.933984,
2013-02-01, 01:47:04,VALID,1012.2,VALID,0,VALID,104,VALID,0,VALID,24.0429,VALID,102,VALID,0.863672,
2013-02-01, 01:48:04,VALID,1012.2,VALID,0,VALID,104,VALID,0,VALID,24.0643,VALID,102,VALID,0.520312,
2013-02-01, 01:49:04,VALID,1012.16,VALID,0,VALID,104,VALID,0,VALID,24.0837,VALID,106,VALID,0.766016,
2013-02-01, 01:50:04,VALID,1012.14,VALID,0,VALID,104,VALID,0,VALID,24.0837,VALID,121,VALID,0.86875,
2013-02-01, 01:51:04,VALID,1012.13,VALID,0,VALID,104,VALID,0,VALID,24.0643,VALID,87,VALID,1.79727,
2013-02-01, 01:52:04,VALID,1012.16,VALID,0,VALID,104,VALID,0,VALID,24.0837,VALID,89,VALID,1.56523,
2013-02-01, 01:53:04,VALID,1012.16,VALID,0,VALID,104,VALID,0,VALID,24.0643,VALID,94,VALID,1.23906,
2013-02-01, 01:54:04,VALID,1012.15,VALID,0,VALID,104,VALID,0,VALID,24.0643,VALID,95,VALID,0.383203,
2013-02-01, 01:55:04,VALID,1012.15,VALID,0,VALID,104,VALID,0,VALID,24.0448,VALID,94,VALID,1.29727,
2013-02-01, 01:56:04,VALID,1012.09,VALID,0,VALID,104,VALID,0,VALID,24.0643,VALID,114,VALID,0.979688,
2013-02-01, 01:57:04,VALID,1012.09,VALID,0,VALID,104,VALID,0,VALID,24.0448,VALID,107,VALID,0.947266,
2013-02-01, 01:58:04,VALID,1012.07,VALID,0,VALID,104,VALID,0,VALID,24.0253,VALID,114,VALID,0.85625,
2013-02-01, 01:59:04,VALID,1012.05,VALID,0,VALID,104,VALID,0,VALID,24.0253,VALID,107,VALID,1.08477,
2013-02-01, 02:00:04,VALID,1012.07,VALID,0,VALID,104,VALID,0,VALID,24.0253,VALID,93,VALID,0.998828,
2013-02-01, 02:01:04,VALID,1012.04,VALID,0,VALID,104,VALID,0,VALID,24.0253,VALID,93,VALID,0.544531,
2013-02-01, 02:02:04,VALID,1012.05,VALID,0,VALID,104,VALID,0,VALID,24.0271,VALID,84,VALID,0.549219,
2013-02-01, 02:03:04,VALID,1012.04,VALID,0,VALID,104,VALID,0,VALID,24.0058,VALID,84,VALID,0.0414063,
2013-02-01, 02:04:04,VALID,1012.02,VALID,0,VALID,104,VALID,0,VALID,23.9863,VALID,84,VALID,0.323047,
2013-02-01, 02:05:04,VALID,1012.02,VALID,0,VALID,104,VALID,0,VALID,24.0058,VALID,84,VALID,0.3875,
2013-02-01, 02:06:04,VALID,1012.05,VALID,0,VALID,104,VALID,0,VALID,24.0076,VALID,76,VALID,0.620703,
2013-02-01, 02:07:04,VALID,1012.05,VALID,0,VALID,104,VALID,0,VALID,23.9668,VALID,55,VALID,0.819531,
2013-02-01, 02:08:04,VALID,1012.1,VALID,0,VALID,104,VALID,0,VALID,23.9881,VALID,48,VALID,0.895703,
2013-02-01, 02:09:04,VALID,1012.14,VALID,0,VALID,104,VALID,0,VALID,23.9881,VALID,47,VALID,0.328516,
2013-02-01, 02:10:04,VALID,1012.16,VALID,0,VALID,104,VALID,0,VALID,23.9668,VALID,35,VALID,0.952344,
2013-02-01, 02:11:04,VALID,1012.17,VALID,0,VALID,104,VALID,0,VALID,23.9881,VALID,45,VALID,1.17344,
2013-02-01, 02:12:04,VALID,1012.22,VALID,0,VALID,104,VALID,0,VALID,23.9278,VALID,44,VALID,0.555078,
2013-02-01, 02:13:04,VALID,1012.2,VALID,0,VALID,104,VALID,0,VALID,23.9278,VALID,43,VALID,0.00703125,
2013-02-01, 02:14:04,VALID,1012.19,VALID,0,VALID,104,VALID,0,VALID,23.9084,VALID,44,VALID,0.0121094,
2013-02-01, 02:15:04,VALID,1012.15,VALID,0,VALID,104,VALID,0,VALID,23.9084,VALID,43,VALID,0.0902344,
2013-02-01, 02:16:04,VALID,1012.16,VALID,0,VALID,104,VALID,0,VALID,23.9084,VALID,43,VALID,0.233594,
2013-02-01, 02:17:04,VALID,1012.16,VALID,0,VALID,104,VALID,0,VALID,23.9084,VALID,43,VALID,0.188281,
2013-02-01, 02:18:04,VALID,1012.14,VALID,0,VALID,104,VALID,0,VALID,23.9084,VALID,43,VALID,0.236328,
2013-02-01, 02:19:04,VALID,1012.11,VALID,0,VALID,104,VALID,0,VALID,23.8889,VALID,43,VALID,0.326953,
2013-02-01, 02:20:04,VALID,1012.1,VALID,0,VALID,104,VALID,0,VALID,23.8889,VALID,43,VALID,0.276563,
2013-02-01, 02:21:04,VALID,1012.08,VALID,0,VALID,104,VALID,0,VALID,23.8694,VALID,44,VALID,0.352734,
2013-02-01, 02:22:04,VALID,1012.03,VALID,0,VALID,104,VALID,0,VALID,23.8694,VALID,44,VALID,0.0765625,
2013-02-01, 02:23:04,VALID,1012,VALID,0,VALID,104,VALID,0,VALID,23.8499,VALID,43,VALID,0.028125,
2013-02-01, 02:24:04,VALID,1011.99,VALID,0,VALID,104,VALID,0,VALID,23.8499,VALID,43,VALID,0.274609,
2013-02-01, 02:25:04,VALID,1011.99,VALID,0,VALID,104,VALID,0,VALID,23.8304,VALID,43,VALID,0.453125,
2013-02-01, 02:26:04,VALID,1011.98,VALID,0,VALID,104,VALID,0,VALID,23.8517,VALID,43,VALID,0.558984,
2013-02-01, 02:27:04,VALID,1011.99,VALID,0,VALID,104,VALID,0,VALID,23.8304,VALID,43,VALID,0.377344,
2013-02-01, 02:28:04,VALID,1011.99,VALID,0,VALID,104,VALID,0,VALID,23.8517,VALID,34,VALID,0.513281,
2013-02-01, 02:29:04,VALID,1012.01,VALID,0,VALID,104,VALID,0,VALID,23.8304,VALID,27,VALID,0.427734,
2013-02-01, 02:30:04,VALID,1011.99,VALID,0,VALID,104,VALID,0,VALID,23.7914,VALID,22,VALID,0.199219,
2013-02-01, 02:31:04,VALID,1011.96,VALID,0,VALID,104,VALID,0,VALID,23.8322,VALID,22,VALID,0.00117188,
2013-02-01, 02:32:04,VALID,1011.93,VALID,0,VALID,104,VALID,0,VALID,23.7914,VALID,22,VALID,0,
2013-02-01, 02:33:04,VALID,1011.9,VALID,0,VALID,104,VALID,0,VALID,23.7914,VALID,22,VALID,0,
2013-02-01, 02:34:04,VALID,1011.93,VALID,0,VALID,104,VALID,0,VALID,23.772,VALID,22,VALID,0.0515625,
2013-02-01, 02:35:04,VALID,1011.94,VALID,0,VALID,104,VALID,0,VALID,23.7738,VALID,22,VALID,0.335547,
2013-02-01, 02:36:04,VALID,1011.97,VALID,0,VALID,104,VALID,0,VALID,23.772,VALID,23,VALID,0.392188,
2013-02-01, 02:37:04,VALID,1011.97,VALID,0,VALID,104,VALID,0,VALID,23.7525,VALID,22,VALID,0.259766,
2013-02-01, 02:38:04,VALID,1011.97,VALID,0,VALID,104,VALID,0,VALID,23.7525,VALID,22,VALID,0.133203,
2013-02-01, 02:39:04,VALID,1011.95,VALID,0,VALID,104,VALID,0,VALID,23.7543,VALID,22,VALID,0,
2013-02-01, 02:40:04,VALID,1011.93,VALID,0,VALID,104,VALID,0,VALID,23.7135,VALID,22,VALID,0,
2013-02-01, 02:41:04,VALID,1011.9,VALID,0,VALID,104,VALID,0,VALID,23.7135,VALID,22,VALID,0.0769531,
2013-02-01, 02:42:04,VALID,1011.87,VALID,0,VALID,104,VALID,0,VALID,23.7348,VALID,22,VALID,0.106641,
2013-02-01, 02:43:04,VALID,1011.85,VALID,0,VALID,104,VALID,0,VALID,23.7135,VALID,22,VALID,0,
2013-02-01, 02:44:04,VALID,1011.86,VALID,0,VALID,104,VALID,0,VALID,23.694,VALID,22,VALID,0.232422,
2013-02-01, 02:45:04,VALID,1011.85,VALID,0,VALID,104,VALID,0,VALID,23.694,VALID,22,VALID,0.265234,
2013-02-01, 02:46:04,VALID,1011.82,VALID,0,VALID,104,VALID,0,VALID,23.694,VALID,22,VALID,0.0707031,
2013-02-01, 02:47:04,VALID,1011.82,VALID,0,VALID,104,VALID,0.112112,VALID,23.6922,VALID,22,VALID,0.139453,
2013-02-01, 02:48:04,VALID,1011.82,VALID,0,VALID,104,VALID,0,VALID,23.6922,VALID,22,VALID,0.311719,
2013-02-01, 02:49:04,VALID,1011.79,VALID,0,VALID,104,VALID,0.112112,VALID,23.6727,VALID,22,VALID,0.339453,
2013-02-01, 02:50:04,VALID,1011.76,VALID,0,VALID,104,VALID,0,VALID,23.6532,VALID,22,VALID,0.0691406,
2013-02-01, 02:51:04,VALID,1011.76,VALID,0,VALID,104,VALID,0,VALID,23.6338,VALID,22,VALID,0.278906,
2013-02-01, 02:52:04,VALID,1011.74,VALID,0,VALID,104,VALID,0.112112,VALID,23.6143,VALID,22,VALID,0.160547,
2013-02-01, 02:53:04,VALID,1011.73,VALID,0,VALID,104,VALID,0,VALID,23.6143,VALID,22,VALID,0,
2013-02-01, 02:54:04,VALID,1011.73,VALID,0,VALID,104,VALID,0,VALID,23.5966,VALID,22,VALID,0,
2013-02-01, 02:55:04,VALID,1011.7,VALID,0,VALID,104,VALID,0,VALID,23.5966,VALID,22,VALID,0,
2013-02-01, 02:56:04,VALID,1011.69,VALID,0,VALID,104,VALID,0,VALID,23.5558,VALID,22,VALID,0.0132813,
2013-02-01, 02:57:04,VALID,1011.7,VALID,0,VALID,104,VALID,0.112112,VALID,23.5558,VALID,22,VALID,0,
2013-02-01, 02:58:04,VALID,1011.71,VALID,0,VALID,104,VALID,0,VALID,23.5576,VALID,22,VALID,0.00976563,
2013-02-01, 02:59:04,VALID,1011.69,VALID,0,VALID,104,VALID,0,VALID,23.5753,VALID,22,VALID,0.0476562,
2013-02-01, 03:00:04,VALID,1011.73,VALID,0,VALID,104,VALID,0,VALID,23.5753,VALID,22,VALID,0.397656,
2013-02-01, 03:01:04,VALID,1011.75,VALID,0,VALID,104,VALID,0,VALID,23.5966,VALID,22,VALID,0,
2013-02-01, 03:02:04,VALID,1011.75,VALID,0,VALID,104,VALID,0.112112,VALID,23.5753,VALID,22,VALID,0.0867188,
2013-02-01, 03:03:04,VALID,1011.76,VALID,0,VALID,104,VALID,0,VALID,23.5948,VALID,22,VALID,0.3375,
2013-02-01, 03:04:04,VALID,1011.79,VALID,0,VALID,104,VALID,0,VALID,23.5948,VALID,22,VALID,0.244922,
2013-02-01, 03:05:04,VALID,1011.8,VALID,0,VALID,104,VALID,0,VALID,23.6161,VALID,22,VALID,0.266406,
2013-02-01, 03:06:04,VALID,1011.8,VALID,0,VALID,104,VALID,0.112112,VALID,23.5948,VALID,22,VALID,0.295312,
2013-02-01, 03:07:04,VALID,1011.78,VALID,0,VALID,104,VALID,0,VALID,23.5948,VALID,22,VALID,0.208594,
2013-02-01, 03:08:04,VALID,1011.77,VALID,0,VALID,104,VALID,0,VALID,23.6161,VALID,22,VALID,0.237891,
2013-02-01, 03:09:04,VALID,1011.76,VALID,0,VALID,104,VALID,0.112112,VALID,23.6161,VALID,22,VALID,0,
2013-02-01, 03:10:04,VALID,1011.75,VALID,0,VALID,104,VALID,0.112112,VALID,23.5948,VALID,22,VALID,0,
2013-02-01, 03:11:04,VALID,1011.7,VALID,0,VALID,104,VALID,0.112112,VALID,23.5948,VALID,22,VALID,0,
2013-02-01, 03:12:04,VALID,1011.73,VALID,0,VALID,104,VALID,0.112112,VALID,23.5948,VALID,22,VALID,0,
2013-02-01, 03:13:04,VALID,1011.71,VALID,0,VALID,104,VALID,0.112112,VALID,23.5948,VALID,22,VALID,0,
2013-02-01, 03:14:04,VALID,1011.69,VALID,0,VALID,104,VALID,0,VALID,23.5948,VALID,23,VALID,0,
2013-02-01, 03:15:04,VALID,1011.67,VALID,0,VALID,104,VALID,0,VALID,23.5948,VALID,22,VALID,0,
2013-02-01, 03:16:04,VALID,1011.67,VALID,0,VALID,104,VALID,0.112112,VALID,23.6143,VALID,22,VALID,0,
2013-02-01, 03:17:04,VALID,1011.66,VALID,0,VALID,104,VALID,0,VALID,23.5771,VALID,22,VALID,0,
2013-02-01, 03:18:04,VALID,1011.64,VALID,0,VALID,104,VALID,0,VALID,23.5576,VALID,22,VALID,0.380469,
2013-02-01, 03:19:04,VALID,1011.63,VALID,0,VALID,104,VALID,0,VALID,23.5186,VALID,22,VALID,0.489844,
2013-02-01, 03:20:04,VALID,1011.59,VALID,0,VALID,104,VALID,0,VALID,23.4992,VALID,22,VALID,0.535156,
2013-02-01, 03:21:04,VALID,1011.58,VALID,0,VALID,104,VALID,0,VALID,23.4992,VALID,22,VALID,0.439453,
2013-02-01, 03:22:04,VALID,1011.59,VALID,0,VALID,104,VALID,0,VALID,23.4797,VALID,22,VALID,0.569141,
2013-02-01, 03:23:04,VALID,1011.58,VALID,0,VALID,104,VALID,0,VALID,23.4602,VALID,22,VALID,0.583203,
2013-02-01, 03:24:04,VALID,1011.57,VALID,0,VALID,104,VALID,0,VALID,23.4797,VALID,22,VALID,0.455078,
2013-02-01, 03:25:04,VALID,1011.55,VALID,0,VALID,104,VALID,0,VALID,23.5009,VALID,22,VALID,0.438281,
2013-02-01, 03:26:04,VALID,1011.56,VALID,0,VALID,104,VALID,0,VALID,23.5204,VALID,22,VALID,0.246484,
2013-02-01, 03:27:04,VALID,1011.56,VALID,0,VALID,104,VALID,0,VALID,23.5204,VALID,22,VALID,0.272266,
2013-02-01, 03:28:04,VALID,1011.55,VALID,0,VALID,104,VALID,0,VALID,23.4797,VALID,22,VALID,0.0273438,
2013-02-01, 03:29:04,VALID,1011.54,VALID,0,VALID,104,VALID,0,VALID,23.5009,VALID,22,VALID,0,
2013-02-01, 03:30:04,VALID,1011.55,VALID,0,VALID,104,VALID,0,VALID,23.4797,VALID,22,VALID,0.172266,
2013-02-01, 03:31:04,VALID,1011.54,VALID,0,VALID,104,VALID,0,VALID,23.4602,VALID,22,VALID,0.0171875,
2013-02-01, 03:32:04,VALID,1011.55,VALID,0,VALID,104,VALID,0,VALID,23.4974,VALID,22,VALID,0.262109,
2013-02-01, 03:33:04,VALID,1011.5,VALID,0,VALID,104,VALID,0,VALID,23.4974,VALID,22,VALID,0.26875,
2013-02-01, 03:34:04,VALID,1011.51,VALID,0,VALID,104,VALID,0.112112,VALID,23.5169,VALID,22,VALID,0.145703,
2013-02-01, 03:35:04,VALID,1011.5,VALID,0,VALID,104,VALID,0,VALID,23.5169,VALID,22,VALID,0,
2013-02-01, 03:36:04,VALID,1011.52,VALID,0,VALID,104,VALID,0,VALID,23.5169,VALID,22,VALID,0,
2013-02-01, 03:37:04,VALID,1011.53,VALID,0,VALID,104,VALID,0,VALID,23.5169,VALID,22,VALID,0,
2013-02-01, 03:38:04,VALID,1011.54,VALID,0,VALID,104,VALID,0,VALID,23.5363,VALID,22,VALID,0,
2013-02-01, 03:39:04,VALID,1011.54,VALID,0,VALID,104,VALID,0.112112,VALID,23.5169,VALID,22,VALID,0,
2013-02-01, 03:40:04,VALID,1011.53,VALID,0,VALID,104,VALID,0,VALID,23.4974,VALID,22,VALID,0,
2013-02-01, 03:41:04,VALID,1011.49,VALID,0,VALID,104,VALID,0.112112,VALID,23.5169,VALID,22,VALID,0,
2013-02-01, 03:42:04,VALID,1011.47,VALID,0,VALID,104,VALID,0.112112,VALID,23.5169,VALID,22,VALID,0,
2013-02-01, 03:43:04,VALID,1011.43,VALID,0,VALID,104,VALID,0,VALID,23.4779,VALID,101,VALID,0.539063,
2013-02-01, 03:44:04,VALID,1011.44,VALID,0,VALID,104,VALID,0,VALID,23.4389,VALID,102,VALID,0.530078,
2013-02-01, 03:45:04,VALID,1011.43,VALID,0,VALID,104,VALID,0.112112,VALID,23.4194,VALID,113,VALID,0.551172,
2013-02-01, 03:46:04,VALID,1011.4,VALID,0,VALID,104,VALID,0.112112,VALID,23.4,VALID,117,VALID,0.690234,
2013-02-01, 03:47:04,VALID,1011.38,VALID,0,VALID,104,VALID,0,VALID,23.4017,VALID,116,VALID,0.634375,
2013-02-01, 03:48:04,VALID,1011.36,VALID,0,VALID,104,VALID,0,VALID,23.4017,VALID,116,VALID,0.405078,
2013-02-01, 03:49:04,VALID,1011.37,VALID,0,VALID,104,VALID,0,VALID,23.4212,VALID,116,VALID,0.697656,
2013-02-01, 03:50:04,VALID,1011.39,VALID,0,VALID,104,VALID,0,VALID,23.4212,VALID,116,VALID,0.595703,
2013-02-01, 03:51:04,VALID,1011.39,VALID,0,VALID,104,VALID,0,VALID,23.4017,VALID,116,VALID,0.709375,
2013-02-01, 03:52:04,VALID,1011.41,VALID,0,VALID,104,VALID,0,VALID,23.4212,VALID,116,VALID,0.633984,
2013-02-01, 03:53:04,VALID,1011.39,VALID,0,VALID,104,VALID,0,VALID,23.4017,VALID,116,VALID,0.477344,
2013-02-01, 03:54:04,VALID,1011.42,VALID,0,VALID,104,VALID,0,VALID,23.4017,VALID,116,VALID,0.306641,